Weather History for PASO - April, 2014

Change the Weather History Date:

Monday, April 7, 2014

  Actual Average (PAHO) Record (PAHO)
Temperature  
Mean Temperature 32 °F -  
Max Temperature 36 °F 40 °F 51 °F (1940)
Min Temperature 28 °F 27 °F 5 °F (1986)
Degree Days  
Heating Degree Days 33    
Moisture  
Dew Point 27 °F    
Average Humidity 83    
Maximum Humidity 100    
Minimum Humidity 61    
Precipitation  
Precipitation 0.03 in - - ()
Sea Level Pressure  
Sea Level Pressure 29.40 in    
Wind  
Wind Speed 2 mph (SSW)    
Max Wind Speed 13 mph    
Max Gust Speed 33 mph    
Visibility 9 miles    
Events Snow    
Averages and records for this station are not official NWS values.
T = Trace of Precipitation, MM = Missing Value Source: NWS Daily Summary

Daily Weather History Graph

Daily Weather History Graph

Search for Another Location

Airport or City:

Trip Planner

Search our weather history database for the weather conditions in past years. The results will help you decide how hot, cold, wet, or windy it might be!

Date:

Astronomy

Apr. 07, 2014 Rise Set
Actual Time 7:14 AM AKDT 9:04 PM AKDT
Civil Twilight 6:31 AM AKDT 9:48 PM AKDT
Nautical Twilight 5:36 AM AKDT 10:43 PM AKDT
Astronomical Twilight 4:29 AM AKDT 11:51 PM AKDT
Moon 12:43 PM AKDT (4/7) 4:27 AM AKDT (4/7)
Length of Visible Light 15h 17m
Length of Day
13h 50m
First Quarter, 55% of the Moon is Illuminated
Apr 7
First Quarter
Apr 14
Full
Apr 21
Last Quarter
Apr 28
New
May 6
First Quarter

Hourly Weather History & Observations

Time (AKDT) Temp. Windchill Dew Point Humidity Pressure Visibility Wind Dir Wind Speed Gust Speed Precip Events Conditions
12:53 AM 32.0 °F - 30.0 °F 92% 29.54 in 10.0 mi Calm Calm - N/A   Mostly Cloudy
1:17 AM 30.2 °F - 28.4 °F 93% 29.53 in 10.0 mi Calm Calm - N/A   Mostly Cloudy
1:53 AM 30.0 °F - 28.9 °F 96% 29.52 in 10.0 mi Calm Calm - N/A   Overcast
2:53 AM 30.0 °F - 28.9 °F 96% 29.51 in 10.0 mi Calm Calm - N/A   Overcast
3:53 AM 28.9 °F - 28.0 °F 96% 29.49 in 10.0 mi Calm Calm - N/A   Mostly Cloudy
4:53 AM 30.9 °F - 30.0 °F 96% 29.47 in 10.0 mi Calm Calm - N/A   Overcast
5:32 AM 30.2 °F - 30.2 °F 100% 29.45 in 10.0 mi Calm Calm - N/A   Overcast
5:51 AM 30.2 °F - 30.2 °F 100% 29.45 in 10.0 mi Calm Calm - N/A   Overcast
5:53 AM 30.9 °F - 30.0 °F 96% 29.45 in 10.0 mi Calm Calm - N/A   Overcast
6:12 AM 30.2 °F - 30.2 °F 100% 29.44 in 10.0 mi Calm Calm - N/A   Overcast
6:53 AM 32.0 °F - 30.9 °F 96% 29.43 in 4.0 mi Calm Calm - 0.00 in Snow Light Snow
7:01 AM 32.0 °F - 30.2 °F 93% 29.42 in 1.8 mi Calm Calm - 0.00 in Snow Light Snow
7:15 AM 32.0 °F - 30.2 °F 93% 29.42 in 3.0 mi Calm Calm - 0.00 in Snow Light Snow
7:26 AM 32.0 °F - 32.0 °F 100% 29.42 in 4.0 mi Calm Calm - 0.01 in Snow Light Snow
7:53 AM 32.0 °F - 32.0 °F 100% 29.41 in 10.0 mi Calm Calm - 0.01 in   Overcast
8:33 AM 33.8 °F - 32.0 °F 93% 29.40 in 10.0 mi Calm Calm - 0.00 in   Overcast
8:53 AM 33.1 °F - 33.1 °F 100% 29.39 in 10.0 mi Calm Calm - 0.00 in   Overcast
9:51 AM 35.6 °F - 33.8 °F 93% 29.37 in 10.0 mi Calm Calm - 0.01 in   Overcast
9:53 AM 35.1 °F - 34.0 °F 96% 29.37 in 10.0 mi Calm Calm - 0.01 in   Overcast
10:53 AM 36.0 °F 33.3 °F 30.9 °F 82% 29.37 in 10.0 mi Variable 3.5 mph - N/A   Overcast
11:46 AM 35.6 °F 31.7 °F 28.4 °F 75% 29.37 in 10.0 mi Variable 4.6 mph - N/A   Overcast
12:53 PM 35.1 °F 30.1 °F 24.1 °F 64% 29.36 in 10.0 mi Variable 5.8 mph - N/A   Scattered Clouds
1:41 PM 35.6 °F 29.9 °F 24.8 °F 65% 29.36 in 10.0 mi Variable 6.9 mph - N/A   Mostly Cloudy
1:53 PM 35.1 °F 28.6 °F 25.0 °F 67% 29.36 in 10.0 mi SSW 8.1 mph 19.6 mph N/A   Mostly Cloudy
2:53 PM 32.0 °F 23.0 °F 23.0 °F 69% 29.35 in 10.0 mi SSW 11.5 mph 23.0 mph 0.01 in   Overcast
3:53 PM 32.0 °F 24.8 °F 25.0 °F 75% 29.34 in 10.0 mi SSW 8.1 mph 23.0 mph N/A   Overcast
4:53 PM 32.0 °F 23.0 °F 24.1 °F 73% 29.33 in 10.0 mi SSW 11.5 mph 19.6 mph N/A   Overcast
5:29 PM 33.8 °F 26.4 °F 24.8 °F 70% 29.33 in 10.0 mi SSW 9.2 mph 18.4 mph N/A   Overcast
5:42 PM 33.8 °F 24.8 °F 23.0 °F 65% 29.33 in 10.0 mi South 12.7 mph 24.2 mph N/A   Overcast
5:53 PM 33.1 °F 27.7 °F 23.0 °F 66% 29.34 in 10.0 mi Variable 5.8 mph 18.4 mph N/A   Overcast
6:53 PM 32.0 °F 25.6 °F 21.9 °F 66% 29.33 in 10.0 mi Variable 6.9 mph 33.4 mph N/A   Overcast
7:53 PM 32.0 °F 26.4 °F 19.9 °F 61% 29.33 in 10.0 mi Variable 5.8 mph - N/A   Overcast
8:53 PM 30.9 °F 22.2 °F 19.0 °F 61% 29.32 in 10.0 mi South 10.4 mph 16.1 mph N/A   Overcast
9:53 PM 30.0 °F 25.2 °F 18.0 °F 61% 29.34 in 10.0 mi Variable 4.6 mph 19.6 mph N/A   Overcast
10:53 PM 28.9 °F 21.1 °F 18.0 °F 64% 29.34 in 10.0 mi South 8.1 mph 18.4 mph N/A   Partly Cloudy
11:53 PM 28.0 °F 20.0 °F 18.0 °F 66% 29.34 in 10.0 mi South 8.1 mph 18.4 mph N/A   Clear